Cincinnati, OH

8:14 AM EST on December 13, 2019 (GMT -0500)
Cincinnati Municipal-Lunken

Weather History for KLUK - September, 2019

Change the Weather History Date:

Sunday, September 8, 2019

  Actual Average Record
Temperature  
Mean Temperature 66 °F -  
Max Temperature 79 °F 82 °F 96 °F (2002)
Min Temperature 55 °F 60 °F 43 °F (1951)
Cooling Degree Days 2    
Growing Degree Days 16 (Base 50)    
Moisture  
Dew Point 58 °F    
Average Humidity 89    
Maximum Humidity 100    
Minimum Humidity 54    
Precipitation  
Precipitation 0.00 in - - ()
Sea Level Pressure  
Sea Level Pressure 30.07 in    
Wind  
Wind Speed 2 mph ()    
Max Wind Speed 7 mph    
Max Gust Speed -    
Visibility 5.7 miles    
Events Fog    
Averages and records for this station are not official NWS values.
T = Trace of Precipitation, MM = Missing Value Source: Averaged Metar Reports

Daily Weather History Graph

Daily Weather History Graph

Search for Another Location

Airport or City:

Astronomy

Sep. 08, 2019 Rise Set
Actual Time 7:12 AM EDT 7:57 PM EDT
Civil Twilight 6:45 AM EDT 8:24 PM EDT
Nautical Twilight 6:13 AM EDT 8:56 PM EDT
Astronomical Twilight 5:40 AM EDT 9:29 PM EDT
Moon 5:03 PM EDT (9/8) 1:53 AM EDT (9/8)
Length of Visible Light 13h 39m
Length of Day
12h 45m
Waxing Gibbous, 75% of the Moon is Illuminated
Sep 8
Waxing Gibbous
Sep 14
Full
Sep 21
Last Quarter
Sep 28
New
Oct 5
First Quarter

Hourly Weather History & Observations

Time (EDT) Temp. Dew Point Humidity Pressure Visibility Wind Dir Wind Speed Gust Speed Precip Events Conditions
12:53 AM 60.1 °F 59.0 °F 96% 30.06 in 8.0 mi Calm Calm - N/A   Partly Cloudy
1:53 AM 59.0 °F 59.0 °F 100% 30.05 in 6.0 mi Calm Calm - N/A   Clear
2:53 AM 57.0 °F 57.0 °F 100% 30.04 in 0.5 mi Calm Calm - N/A Fog Fog
3:02 AM 57.9 °F 57.9 °F 100% 30.05 in 2.0 mi Calm Calm - N/A   Clear
3:13 AM 57.9 °F 57.9 °F 100% 30.05 in 8.0 mi Calm Calm - N/A   Clear
3:31 AM 57.0 °F 57.0 °F 100% 30.05 in 1.5 mi ENE 3.5 mph - N/A   Clear
3:48 AM 57.2 °F 57.2 °F 100% 30.05 in 5.0 mi Calm Calm - N/A   Clear
3:53 AM 57.9 °F 57.0 °F 97% 30.04 in 6.0 mi Calm Calm - N/A   Clear
4:16 AM 55.9 °F 55.9 °F 100% 30.04 in 1.5 mi Calm Calm - N/A   Clear
4:32 AM 57.0 °F 57.0 °F 100% 30.05 in 2.5 mi Calm Calm - N/A   Clear
4:46 AM 55.0 °F 55.0 °F 100% 30.05 in 0.8 mi Calm Calm - N/A   Clear
4:53 AM 55.9 °F 55.9 °F 100% 30.05 in 0.5 mi Calm Calm - N/A Fog Fog
5:00 AM 55.9 °F 55.9 °F 100% 30.05 in 2.5 mi NE 3.5 mph - N/A   Clear
5:06 AM 55.9 °F 55.9 °F 100% 30.06 in 6.0 mi NE 3.5 mph - N/A   Partly Cloudy
5:19 AM 55.9 °F 55.0 °F 97% 30.05 in 2.0 mi NE 4.6 mph - N/A   Mostly Cloudy
5:23 AM 55.9 °F 55.9 °F 100% 30.05 in 0.8 mi NNE 4.6 mph - N/A   Mist
5:31 AM 57.0 °F 57.0 °F 100% 30.06 in 1.2 mi NNE 3.5 mph - N/A   Scattered Clouds
5:34 AM 57.0 °F 57.0 °F 100% 30.06 in 3.0 mi NE 3.5 mph - N/A   Mostly Cloudy
5:50 AM 57.2 °F 57.2 °F 100% 30.06 in 1.8 mi NE 3.5 mph - N/A   Scattered Clouds
5:53 AM 57.0 °F 57.0 °F 100% 30.06 in 1.5 mi NNE 3.5 mph - N/A   Scattered Clouds
6:03 AM 55.9 °F 55.9 °F 100% 30.07 in 3.0 mi Calm Calm - N/A   Scattered Clouds
6:09 AM 55.9 °F 55.9 °F 100% 30.07 in 1.0 mi ENE 3.5 mph - N/A   Mist
6:14 AM 55.9 °F 55.9 °F 100% 30.08 in 0.2 mi ENE 3.5 mph - N/A Fog Fog
6:32 AM 57.0 °F 57.0 °F 100% 30.08 in 2.5 mi NE 3.5 mph - N/A   Scattered Clouds
6:39 AM 57.0 °F 57.0 °F 100% 30.09 in 5.0 mi ENE 3.5 mph - N/A   Scattered Clouds
6:53 AM 57.0 °F 57.0 °F 100% 30.09 in 7.0 mi Calm Calm - N/A   Partly Cloudy
7:53 AM 57.9 °F 57.9 °F 100% 30.09 in 6.0 mi NNE 3.5 mph - N/A   Partly Cloudy
8:53 AM 63.0 °F 61.0 °F 93% 30.10 in 10.0 mi ENE 4.6 mph - N/A   Clear
9:53 AM 66.9 °F 62.1 °F 84% 30.11 in 10.0 mi Calm Calm - N/A   Partly Cloudy
10:53 AM 71.1 °F 60.1 °F 68% 30.12 in 10.0 mi East 4.6 mph - N/A   Scattered Clouds
11:53 AM 75.0 °F 59.0 °F 57% 30.08 in 10.0 mi ENE 6.9 mph - N/A   Clear
12:53 PM 78.1 °F 60.1 °F 54% 30.08 in 10.0 mi Variable 3.5 mph - N/A   Partly Cloudy
1:53 PM 77.0 °F 59.0 °F 54% 30.09 in 10.0 mi NE 4.6 mph - N/A   Partly Cloudy
2:53 PM 75.9 °F 59.0 °F 56% 30.11 in 10.0 mi NW 3.5 mph - N/A   Mostly Cloudy
3:53 PM 75.9 °F 61.0 °F 60% 30.08 in 10.0 mi ENE 3.5 mph - N/A   Scattered Clouds
4:53 PM 75.9 °F 60.1 °F 58% 30.09 in 10.0 mi NE 3.5 mph - N/A   Scattered Clouds
5:53 PM 77.0 °F 62.1 °F 60% 30.06 in 10.0 mi ENE 5.8 mph - N/A   Mostly Cloudy
6:53 PM 75.0 °F 60.1 °F 60% 30.06 in 10.0 mi East 4.6 mph - N/A   Partly Cloudy
7:53 PM 69.1 °F 63.0 °F 81% 30.08 in 10.0 mi East 3.5 mph - N/A   Partly Cloudy
8:53 PM 66.0 °F 63.0 °F 90% 30.09 in 10.0 mi Calm Calm - N/A   Clear
9:53 PM 64.9 °F 62.1 °F 90% 30.12 in 10.0 mi Calm Calm - N/A   Overcast
10:53 PM 64.9 °F 63.0 °F 93% 30.13 in 10.0 mi ENE 3.5 mph - N/A   Overcast
11:53 PM 66.0 °F 63.0 °F 90% 30.14 in 10.0 mi NNE 3.5 mph - N/A   Mostly Cloudy